Zurück zum Katalog

STARLINK-35831

AktivKommunikationVLEO
NORAD 66374·PAYLOAD·🇺🇸 United States

Gestartet Nov 6, 2025 von Vandenberg Space Force Base

Loading…

Nächste Überflüge (nächste 24 Stunden)

TLE

AktuellSource: CelesTrak SupGP

Epoche: Sep 14, 2026, 23:10 UTC

1 66374C 25254AC  26257.96576389  .00041541  00000+0  12273-2 0  2577
2 66374  53.1593  67.2640 0001232  75.1066 114.4094 15.34369690    12

Verfolge STARLINK-35831 in Echtzeit mit AllMySat

Download on the App Store